Theta_e
312 317 317 317 318 318 318 320 324 322 321 322 323 322 321 320 319 318 317 315 315 319 320 318 316 314 313 312 312 312 311 312 313 313 312 312 313 314 313 315 319 321 320 319 315 316 319 320 319 319 318 317 316 317 317 315 314 312 310 309 307 305 304 302 302 302 301 300 299 298 297 297 297 296 295 295 295 296 297 297 297 297 297 298 298 298
314 317 317 316 316 316 315 319 325 323 321 322 321 321 319 319 318 316 316 315 315 319 319 317 316 315 313 313 313 312 312 312 313 313 313 312 312 314 314 315 319 320 318 316 315 315 318 319 319 319 318 317 316 316 316 314 313 311 309 309 307 307 306 304 303 303 302 300 298 297 297 297 296 295 295 295 296 297 298 298 298 297 297 298 297 297
316 316 315 315 314 314 317 323 326 323 322 321 320 321 320 318 318 317 316 316 316 319 319 318 317 316 314 313 313 312 312 313 314 313 313 313 313 314 315 317 317 317 316 316 317 317 317 318 318 319 318 316 316 316 315 313 312 311 310 309 309 309 309 308 306 303 301 300 299 298 298 297 297 296 296 297 298 298 298 298 297 297 298 297 297 296
317 315 313 313 314 318 323 326 324 322 322 322 321 321 320 319 320 320 318 316 317 318 319 319 319 317 314 314 313 312 312 313 313 313 314 314 314 314 316 317 316 316 317 318 318 316 315 316 317 317 317 315 315 315 314 313 312 311 311 311 311 311 311 310 309 304 301 302 301 301 301 299 299 299 297 297 298 299 298 297 297 298 297 296 296 296
315 313 311 313 317 321 323 323 322 321 322 323 322 321 320 320 321 320 318 317 318 318 319 321 323 321 317 315 315 313 312 313 313 313 314 315 315 315 315 316 316 316 318 319 318 316 314 314 315 316 315 315 315 314 313 313 313 312 312 312 312 311 311 310 309 306 304 306 306 306 305 302 302 300 297 297 298 298 297 297 297 297 296 296 296 296
314 312 313 317 322 323 321 322 321 320 322 324 323 321 320 320 320 318 319 320 322 322 319 320 326 328 321 318 319 316 313 314 313 313 314 314 315 316 315 315 316 317 318 319 318 315 313 313 314 314 314 315 314 314 313 313 313 313 313 313 312 311 311 310 309 308 308 309 308 307 306 304 302 299 297 297 298 298 297 297 297 296 296 296 296 296
311 312 316 319 322 322 321 320 317 318 322 323 322 321 321 320 319 319 321 323 325 325 319 317 324 328 324 322 321 317 314 314 314 314 314 314 316 317 316 316 316 316 318 319 317 314 313 313 314 314 314 314 314 314 314 315 314 313 313 312 312 312 311 310 309 309 308 308 308 307 305 303 301 299 298 298 298 297 297 297 296 296 296 296 296 296
308 312 317 320 321 320 320 320 315 316 322 323 321 322 321 320 320 322 324 324 322 321 319 317 319 324 327 326 324 320 317 317 316 316 315 315 316 317 317 317 316 317 318 318 319 317 313 314 314 314 314 314 314 315 316 316 314 313 313 312 311 311 310 309 309 308 307 307 306 305 303 301 299 298 298 298 297 297 297 296 296 295 295 295 296 296
307 310 313 317 320 317 316 316 313 317 322 322 322 322 321 320 322 324 324 322 320 322 324 320 318 323 327 324 321 321 321 321 319 318 317 316 316 317 317 317 317 317 318 317 320 319 315 314 314 313 314 315 316 317 316 315 315 314 312 311 310 309 309 308 308 307 306 305 304 303 301 299 298 298 298 297 297 297 296 296 295 295 294 294 295 295
307 307 307 311 315 314 313 313 313 319 322 320 321 322 322 322 323 324 324 323 322 324 324 320 316 321 325 321 319 322 323 322 321 319 318 317 317 317 318 318 317 317 317 316 318 318 315 315 315 314 315 317 316 316 315 315 314 313 311 309 308 308 308 307 307 306 305 304 302 301 300 299 298 298 297 297 297 296 295 295 295 294 294 294 294 295
307 306 306 308 310 309 310 313 315 319 320 319 320 321 322 322 322 323 323 323 324 323 320 316 315 318 322 322 319 320 321 321 321 320 318 318 318 318 318 318 317 316 316 316 315 315 315 315 315 314 315 316 316 315 316 315 313 311 309 308 307 307 307 307 306 305 303 302 301 300 299 298 298 297 297 296 296 295 295 295 295 294 294 294 294 294
308 308 308 307 307 307 311 316 316 318 319 319 321 320 321 321 320 321 321 320 322 321 317 314 314 316 320 321 319 317 316 316 319 320 319 319 318 318 319 318 317 316 316 315 314 314 316 316 315 314 314 315 315 315 316 314 311 309 307 307 307 307 307 305 304 303 302 301 300 299 298 298 297 297 297 296 296 295 295 295 295 295 295 295 294 294
310 310 308 308 308 307 312 318 318 318 320 320 320 319 320 320 319 320 320 320 320 317 314 313 314 318 320 318 317 316 314 313 314 316 317 317 318 317 317 317 316 315 315 314 313 314 315 316 315 315 315 315 316 316 315 313 311 309 308 308 307 306 305 303 302 301 300 299 298 298 298 298 297 297 296 296 296 295 295 295 295 295 295 295 294 293
313 313 310 310 311 307 309 317 319 319 320 319 319 319 320 320 319 319 319 319 318 315 313 312 314 320 320 315 314 313 311 311 310 311 313 314 314 314 314 314 314 314 313 312 312 314 315 316 316 316 316 316 316 315 314 313 311 310 308 308 306 304 303 302 301 300 299 298 298 298 298 298 297 297 296 296 295 295 295 295 295 295 295 294 293 293
314 315 310 309 310 307 307 312 313 315 318 317 315 317 318 316 317 320 320 318 318 315 313 312 314 320 319 314 311 309 308 309 309 309 309 309 310 311 312 313 313 313 312 312 312 313 314 315 316 316 316 316 315 313 313 312 310 309 307 305 303 302 301 300 299 299 298 298 298 298 298 297 297 296 296 295 295 295 295 295 295 295 294 293 293 292
312 312 309 307 306 305 307 308 308 313 317 316 316 318 317 313 314 318 317 316 317 316 314 314 315 316 313 310 308 307 307 307 307 307 307 307 308 308 308 309 310 310 311 311 312 312 313 314 315 315 315 314 313 312 311 310 308 306 304 303 301 300 299 299 299 298 298 298 298 298 297 297 296 296 295 295 295 295 295 295 295 294 294 293 293 292
312 311 309 308 307 305 305 307 307 311 316 317 316 316 312 309 314 318 314 312 314 315 314 315 315 312 310 310 308 306 307 307 307 307 306 306 306 306 306 306 306 306 307 308 309 310 311 312 313 313 313 312 311 310 308 306 304 303 301 300 300 299 299 299 298 298 298 298 298 297 297 296 296 295 295 295 295 295 295 294 294 294 293 292 292 292
312 311 310 310 310 308 305 307 308 307 311 317 316 311 309 307 311 316 313 312 313 314 312 312 312 311 311 312 309 307 308 308 308 308 306 306 306 306 305 305 305 305 305 305 307 308 310 310 311 311 310 309 308 307 305 303 302 300 300 299 300 299 299 299 298 298 298 297 297 297 296 296 295 295 295 295 295 295 294 294 294 293 292 292 292 293
311 312 312 310 311 311 307 310 313 308 307 313 311 308 310 310 312 314 312 311 312 312 312 310 309 309 311 312 309 308 309 308 309 309 307 306 307 306 305 304 304 305 305 306 306 307 308 307 307 307 307 306 305 304 302 301 300 299 300 300 300 299 299 298 298 298 297 297 297 296 296 296 295 296 295 295 295 294 294 294 293 292 292 292 293 293
310 314 314 311 311 313 310 309 312 309 307 309 309 308 309 310 311 312 310 311 313 312 311 310 308 309 311 310 309 310 308 308 310 310 309 307 307 306 305 304 303 303 303 304 304 304 304 304 304 304 304 304 302 301 300 299 300 300 300 300 299 299 298 298 298 297 297 297 296 296 296 296 295 295 295 294 294 294 293 293 292 292 292 293 293 293
310 314 314 312 312 313 310 306 305 306 307 310 311 310 309 308 307 309 309 308 311 313 312 311 311 312 310 306 307 308 307 308 311 310 309 308 307 306 304 303 303 302 302 302 302 302 302 303 304 303 303 301 300 299 299 300 300 300 299 299 299 299 298 297 297 297 297 296 296 296 296 295 295 294 294 294 294 293 293 292 292 292 292 293 293 293
311 315 315 313 312 310 306 302 300 301 302 305 307 306 306 307 308 311 309 306 307 311 312 312 312 311 308 304 304 306 305 306 308 309 309 309 307 306 305 304 304 303 302 302 302 303 303 303 303 301 300 299 299 299 299 300 299 299 299 299 298 298 298 298 297 297 297 296 296 296 295 295 295 294 294 294 293 293 292 292 292 292 293 293 293 293
307 312 313 309 307 306 303 299 297 296 298 301 303 304 305 307 309 311 311 310 308 307 307 310 311 310 306 302 303 304 303 303 306 308 309 308 306 306 305 305 304 303 303 303 303 303 303 303 301 300 299 299 299 299 299 299 299 298 298 298 298 298 298 297 297 297 297 296 296 296 295 295 294 294 294 293 293 292 292 292 293 293 293 293 293 292
306 311 311 308 306 304 301 298 296 294 297 304 305 303 305 307 307 308 308 309 310 309 309 310 311 310 306 301 301 302 302 302 305 307 307 306 306 306 305 305 304 304 304 304 303 303 302 301 299 299 299 299 299 299 299 299 298 298 298 298 298 298 298 297 297 297 296 296 296 295 295 294 294 294 293 293 293 293 293 293 293 293 293 292 292 291
308 311 311 311 311 309 306 305 304 301 302 308 307 303 304 305 306 307 306 307 310 310 309 311 312 310 305 301 301 301 301 301 303 306 307 306 305 305 304 304 304 304 304 303 302 301 300 299 299 299 299 299 299 299 298 298 298 298 298 298 298 298 298 297 297 297 296 296 295 295 294 294 294 293 293 293 293 293 293 293 292 292 292 291 291 290
307 309 310 313 314 313 312 311 310 308 308 308 306 305 305 304 305 308 308 309 311 308 306 310 312 308 305 303 303 303 303 302 303 304 306 305 305 304 304 304 304 304 303 301 299 299 298 298 299 299 298 299 298 298 298 298 298 298 298 298 298 298 298 298 297 296 296 295 295 295 294 294 294 294 294 294 293 293 292 292 292 292 291 291 291 290
306 306 304 309 312 311 309 306 303 304 308 309 307 306 306 304 304 306 308 310 312 309 309 312 310 309 308 306 305 305 306 305 303 303 304 304 304 303 303 303 304 303 301 299 298 298 298 298 299 298 298 298 298 298 298 298 298 298 298 298 298 298 298 297 297 296 295 295 295 295 294 294 294 294 294 293 293 293 292 292 292 292 291 291 291 290
310 308 301 303 305 302 302 301 298 301 306 307 306 306 306 305 304 305 309 312 310 309 312 312 308 309 311 307 306 308 308 306 303 302 303 304 304 303 302 302 302 301 299 298 297 297 298 298 299 298 298 298 298 298 298 298 298 298 298 298 299 299 298 297 296 296 296 295 295 295 295 295 294 294 293 293 293 293 293 292 292 291 291 291 290 290
310 309 300 302 304 298 297 299 298 300 302 302 303 305 306 306 305 306 309 310 309 311 313 310 306 308 309 307 307 309 307 306 305 304 304 305 304 303 302 302 301 300 298 297 297 297 298 299 299 299 298 298 298 298 298 298 298 297 298 298 299 298 297 296 296 296 296 296 295 295 295 294 294 294 293 293 293 293 293 293 292 291 291 290 290 289
307 309 299 301 307 301 297 298 298 299 301 303 304 304 304 306 306 306 308 307 307 309 311 308 306 306 306 305 305 305 305 305 305 305 305 304 303 303 302 301 301 299 298 298 298 298 298 299 299 299 299 298 298 298 298 298 298 297 298 299 299 298 297 296 296 297 297 296 296 295 295 295 294 294 294 294 294 293 293 293 292 292 291 290 290 289
307 309 298 300 310 305 298 297 297 297 299 303 306 303 303 305 304 304 304 304 304 306 307 306 305 305 304 304 304 304 304 304 303 304 304 303 303 303 302 301 301 299 299 298 298 298 298 299 299 299 299 299 298 298 298 298 298 297 298 299 298 297 296 297 297 297 297 296 296 295 295 295 295 295 295 294 294 294 293 293 293 292 291 290 290 289
307 307 299 302 312 308 299 295 298 299 298 301 305 305 302 303 304 304 304 303 305 306 306 305 305 307 305 303 303 302 301 301 301 301 302 302 302 302 302 301 301 299 299 299 299 299 299 299 299 299 299 299 298 298 298 298 298 298 299 299 297 297 297 298 298 298 297 296 296 295 295 295 295 295 295 294 294 294 294 293 293 292 291 290 290 289
306 308 305 306 310 309 300 296 299 302 303 306 310 307 303 301 303 304 304 304 304 305 306 306 306 308 305 302 304 304 300 299 300 300 300 300 301 301 302 301 301 299 299 300 300 300 300 299 300 299 299 299 299 298 298 298 298 298 299 298 297 297 298 298 298 298 297 296 296 296 296 296 296 295 295 294 294 294 294 293 293 292 291 291 290 289
304 307 308 306 307 306 303 300 300 302 307 312 309 303 302 302 303 304 305 305 304 304 306 306 307 310 307 304 307 306 301 299 300 300 300 300 300 301 301 301 301 299 299 300 301 301 300 300 300 299 299 299 299 299 298 298 298 298 299 298 297 298 298 298 298 298 297 296 296 296 296 296 296 295 295 295 294 294 294 294 293 292 292 291 290 289
306 306 305 304 304 306 304 303 303 307 312 312 302 297 299 301 301 303 304 304 303 304 305 305 307 308 306 303 305 305 302 301 301 301 300 300 300 300 301 301 301 299 299 300 301 301 300 300 300 299 299 299 299 299 298 298 298 299 299 298 298 298 299 299 298 298 297 297 297 297 296 296 296 295 295 294 294 294 294 293 293 292 292 291 290 289
305 306 304 304 304 305 304 304 306 312 313 307 300 297 297 299 300 302 304 305 304 303 303 304 304 303 302 303 304 303 303 302 301 301 301 300 300 300 301 302 301 300 300 300 301 301 301 300 300 300 300 299 299 299 298 298 299 299 299 298 298 299 299 299 298 298 297 297 297 297 296 296 296 295 295 294 294 294 294 293 293 292 292 291 290 289
301 305 305 304 304 304 306 308 310 312 312 309 305 301 299 300 302 303 306 309 306 301 301 303 303 301 301 303 304 303 302 301 301 302 302 301 301 300 301 302 301 300 300 300 301 301 301 300 300 300 299 299 299 298 298 298 299 300 299 298 299 299 299 299 298 298 298 297 297 297 296 296 296 295 295 295 294 294 294 294 293 292 291 291 290 289
298 302 304 305 305 303 305 308 309 310 312 312 309 303 299 300 300 299 304 311 307 301 300 302 301 301 300 301 302 301 301 302 303 304 304 303 302 301 301 301 300 300 300 301 301 301 300 300 300 300 299 299 299 298 298 299 300 300 299 299 299 299 299 299 298 298 298 297 297 297 297 296 296 295 295 295 295 295 294 294 293 292 291 290 290 289
298 301 303 304 306 304 303 305 307 308 311 312 309 303 298 299 299 299 305 314 310 302 301 301 300 300 301 302 301 300 301 304 305 304 304 304 303 301 301 301 300 300 300 301 301 301 301 300 300 300 299 299 298 298 299 300 300 300 300 300 300 299 299 299 298 298 298 297 297 297 297 297 296 296 295 295 295 295 295 294 293 292 291 290 290 289
300 302 304 304 306 306 305 306 307 307 309 311 308 302 298 299 299 302 311 316 308 302 302 302 301 301 302 302 301 299 302 305 306 304 304 304 303 301 301 301 300 300 300 301 301 301 300 300 300 300 299 299 298 299 300 301 301 300 300 300 300 300 299 299 298 298 298 298 297 297 297 297 296 296 295 295 295 296 295 294 293 292 291 290 290 289
301 302 303 304 307 307 306 307 308 310 311 308 304 300 298 299 302 308 317 313 304 302 303 301 301 302 302 302 301 300 301 303 304 305 304 304 303 301 300 300 300 299 300 301 301 301 301 300 300 299 299 298 299 299 300 301 301 301 301 300 300 300 299 299 299 298 298 298 298 297 297 297 296 296 296 296 296 296 295 294 293 292 291 290 290 289
303 302 302 303 305 307 307 306 307 311 309 302 298 297 297 302 311 316 314 306 302 302 302 301 302 302 302 302 302 301 301 302 303 304 303 303 303 301 300 300 299 299 299 300 301 301 300 300 299 299 299 299 299 300 301 301 301 301 301 301 300 299 299 299 299 298 298 298 298 297 297 297 296 296 296 296 296 295 295 294 292 291 290 290 290 289
304 305 306 304 305 306 306 303 307 315 310 300 299 300 300 306 315 311 305 303 303 303 302 302 302 301 301 302 302 301 301 302 302 302 303 303 302 301 300 300 299 299 299 300 301 301 300 300 299 299 299 299 300 301 301 301 301 301 301 301 300 299 299 299 298 298 298 298 298 297 297 297 296 296 296 296 296 295 295 294 292 291 290 290 290 289
305 307 310 308 307 308 307 305 308 313 307 300 302 306 304 305 307 304 302 304 303 303 303 303 302 301 301 301 301 301 301 301 302 302 302 303 302 300 299 299 299 299 300 301 301 300 300 300 299 299 300 300 300 301 301 301 301 301 301 301 300 299 299 298 298 298 298 298 298 297 297 297 297 297 296 296 296 296 295 294 292 291 290 290 290 289
305 305 306 308 309 310 311 310 307 305 302 300 303 306 305 304 304 303 304 304 303 303 304 303 303 302 301 300 300 300 301 301 301 302 302 303 302 300 300 300 300 301 301 301 300 300 300 300 300 300 300 300 300 301 301 301 301 301 301 300 300 299 299 298 298 298 298 298 298 297 297 297 297 297 296 296 296 296 295 293 292 291 291 290 290 290
301 299 300 304 307 306 307 307 304 301 302 302 302 303 304 304 304 303 303 303 303 304 303 303 304 303 301 300 300 300 300 301 301 301 302 302 302 301 301 301 301 301 301 300 300 300 300 300 300 300 300 300 300 301 301 301 301 301 300 300 300 299 299 298 298 298 298 298 298 297 297 297 297 297 296 296 296 296 295 293 292 291 291 291 290 290
299 298 300 303 304 305 308 308 303 301 303 302 302 303 303 303 303 303 303 303 303 303 303 303 303 303 302 301 301 300 300 300 300 301 301 301 302 302 301 301 301 300 300 300 300 300 300 301 301 301 301 300 300 301 301 301 301 301 300 300 300 299 299 299 299 299 298 298 298 297 297 297 297 297 296 296 296 296 295 294 292 292 291 291 290 290
301 299 302 304 302 303 307 306 301 300 302 301 302 303 302 302 304 303 302 303 302 302 303 302 303 303 303 303 302 300 300 300 300 300 301 301 301 301 301 301 301 300 300 300 300 300 301 301 301 301 301 301 300 301 301 301 301 300 300 300 300 300 299 299 299 299 298 298 298 298 297 298 297 297 297 296 296 296 295 294 293 292 291 291 291 290
300 300 303 304 302 302 304 303 300 301 303 302 302 303 303 303 303 302 302 303 302 302 302 302 302 303 303 303 303 301 301 301 300 300 300 301 301 301 301 301 300 300 300 300 300 300 301 301 301 301 301 301 301 301 301 301 301 300 300 300 300 300 300 300 299 299 299 298 298 298 298 298 297 297 297 296 296 296 295 294 293 293 292 292 291 290
298 302 302 302 304 306 304 302 302 304 306 306 304 304 304 303 303 303 302 302 302 302 303 302 302 302 302 303 303 302 303 303 301 300 301 301 301 301 301 300 300 300 300 300 300 300 301 301 301 301 301 301 301 301 301 301 300 300 300 300 300 300 300 300 299 299 299 298 298 298 298 298 298 297 297 297 296 296 295 295 294 293 292 292 291 290
300 302 302 302 306 306 303 303 303 304 305 305 304 303 304 303 303 303 303 302 303 303 302 302 302 302 302 303 303 303 303 303 302 302 301 301 301 301 301 300 300 300 299 300 300 300 301 301 301 301 302 302 302 302 301 301 301 301 300 300 300 300 300 300 299 299 299 298 298 298 298 298 298 297 297 296 296 296 295 295 294 293 293 292 291 290
Wind_Speed
7 3 3 3 3 3 2 2 3 5 11 11 11 9 8 8 7 6 6 2 2 2 4 5 7 7 6 5 6 7 7 7 7 6 6 6 7 9 9 9 12 12 10 9 11 11 10 9 9 7 5 5 9 9 8 7 7 7 7 7 8 9 10 10 11 12 12 13 13 14 15 15 14 16 17 18 21 23 23 22 22 23 24 25 24 24
4 2 3 2 0 4 4 5 7 4 13 12 10 10 8 7 6 6 5 3 1 1 4 5 6 6 5 5 6 7 6 7 9 8 7 8 8 10 10 10 11 10 8 10 14 12 10 10 9 8 7 8 10 9 7 7 7 8 8 8 9 9 10 10 12 13 14 14 13 13 14 15 16 17 18 18 19 20 20 19 21 23 24 24 23 22
1 2 2 3 2 5 5 6 4 8 14 10 9 8 7 6 8 7 4 3 0 1 4 4 5 4 4 4 6 8 7 7 10 10 8 9 9 9 11 12 11 10 10 12 12 10 10 9 9 10 10 10 11 9 7 7 7 8 8 9 9 10 11 11 12 13 14 15 14 14 16 17 18 18 18 18 18 18 18 21 23 24 23 22 21 21
2 2 3 5 5 3 2 3 3 12 10 7 8 6 6 7 7 4 3 3 1 2 5 6 4 3 4 4 4 8 9 7 10 11 10 10 10 10 12 12 12 12 13 11 8 8 9 9 10 11 10 11 11 9 8 7 7 8 9 9 10 10 11 13 13 13 13 15 15 16 17 17 18 18 17 17 18 18 19 23 26 24 22 21 21 22
4 3 6 6 5 3 2 4 6 7 5 4 5 7 9 8 7 7 6 6 3 4 4 5 3 1 4 4 3 6 8 7 9 12 12 13 13 12 11 11 12 14 14 12 10 10 10 10 9 9 10 11 10 9 8 8 9 9 10 10 10 11 12 13 13 13 14 15 16 17 18 18 19 18 15 15 16 17 19 22 24 22 20 20 21 22
4 5 8 4 3 3 3 6 7 2 4 4 3 8 13 10 11 11 10 8 3 2 3 2 2 1 3 4 4 5 5 6 8 11 14 16 16 14 12 12 14 16 14 12 11 10 11 10 8 8 11 12 10 9 8 9 10 10 11 11 11 12 13 13 13 12 13 15 16 17 18 18 18 16 14 14 15 17 19 21 21 20 20 20 21 21
4 9 8 2 1 4 5 6 6 4 5 3 1 9 13 11 14 13 10 6 2 2 2 1 2 1 1 3 5 6 5 6 8 10 14 17 17 17 17 15 16 17 15 14 12 10 10 10 8 9 11 11 10 10 9 9 11 12 12 12 12 12 13 12 11 12 13 15 16 17 17 17 17 16 14 16 17 18 18 18 18 20 21 21 21 21
5 9 7 3 3 5 5 3 5 5 4 3 1 7 12 12 13 12 8 4 2 4 3 0 1 0 1 2 4 8 6 5 7 9 13 17 19 20 20 19 18 17 16 15 14 13 12 11 10 9 9 10 10 9 8 9 11 13 13 13 13 12 12 11 11 13 14 15 16 16 17 16 16 16 16 17 17 17 16 17 17 19 21 22 23 23
4 7 6 5 5 5 2 2 6 5 5 1 2 7 12 11 11 9 6 4 3 4 2 2 1 1 1 2 2 6 4 5 8 10 12 17 21 22 22 21 20 17 15 14 15 15 15 13 11 9 10 11 10 9 8 9 11 13 14 14 12 11 11 12 13 14 14 15 15 15 16 15 15 16 16 16 17 16 16 16 17 18 18 20 23 23
2 3 3 2 4 3 2 4 6 3 4 2 2 9 9 7 7 5 4 4 3 2 2 2 1 1 1 3 1 4 3 5 7 7 12 19 23 23 23 21 19 16 14 13 13 14 14 14 14 13 12 11 9 9 9 10 12 14 14 13 12 11 12 13 13 14 13 14 14 14 15 14 14 14 14 15 15 15 14 14 15 15 16 18 21 22
2 2 4 4 3 1 4 4 4 2 4 5 5 9 7 5 4 2 2 4 3 2 1 2 2 2 1 3 3 4 2 4 6 5 9 16 21 21 20 18 17 16 15 14 14 14 14 15 16 15 13 11 10 9 10 11 13 13 12 11 11 12 12 12 12 12 12 13 13 13 14 13 14 13 13 13 13 13 14 14 14 15 15 17 19 21
4 4 3 3 4 3 3 2 2 1 3 4 5 6 5 4 3 2 3 2 2 1 2 3 3 2 1 3 4 4 2 2 3 5 7 12 17 19 18 17 16 16 17 17 17 17 15 14 15 14 14 12 11 10 11 12 13 12 11 11 11 11 11 10 11 11 12 12 12 12 13 13 13 13 12 12 12 13 14 15 15 15 16 17 18 19
6 5 3 3 4 6 3 1 4 4 3 1 4 6 5 3 2 2 1 0 1 1 2 2 3 1 2 2 3 5 2 4 6 7 8 10 13 14 15 15 15 16 16 16 16 16 15 14 13 13 13 12 11 11 11 12 12 11 11 11 10 9 9 9 10 10 11 11 11 12 13 13 12 12 12 12 12 12 14 14 15 16 16 17 18 18
3 3 7 5 3 8 6 2 3 2 3 1 4 4 4 3 3 2 3 2 1 2 3 3 3 1 2 1 2 5 5 6 10 11 10 10 10 10 11 12 14 15 15 14 14 15 15 15 14 14 13 12 11 10 10 11 11 11 10 9 7 7 7 8 9 9 10 11 11 12 12 12 12 12 12 12 12 13 13 14 15 16 16 16 17 18
3 3 5 4 3 7 7 2 2 1 2 0 1 2 3 2 2 3 3 2 2 1 2 3 2 1 2 0 3 7 8 9 9 10 10 9 8 8 9 10 12 14 15 14 14 15 16 17 17 16 14 12 11 10 9 9 9 8 7 6 5 5 6 7 9 9 10 10 11 11 12 12 12 11 11 11 12 13 13 14 15 16 16 16 17 19
3 3 3 3 4 6 5 2 0 0 1 2 2 2 2 1 2 3 1 2 4 2 1 1 1 1 2 2 4 7 8 8 8 9 8 7 6 6 6 8 10 12 14 16 16 17 17 18 17 15 14 12 10 9 8 7 6 5 4 4 4 5 6 7 8 9 10 10 11 11 12 11 10 11 11 12 12 13 13 14 14 15 15 16 18 19
2 2 4 3 2 2 3 3 3 2 1 1 3 2 1 1 4 5 1 1 2 2 1 2 2 1 2 2 1 4 5 5 7 8 9 8 7 7 7 7 8 9 10 12 14 16 16 15 14 13 12 11 10 8 7 6 5 3 2 2 4 5 6 7 8 9 9 10 11 12 11 10 10 10 11 12 12 13 13 14 14 15 16 17 18 19
2 3 2 3 1 1 3 3 4 4 2 1 1 2 1 2 3 3 2 2 1 1 1 2 2 2 2 1 1 3 4 4 6 7 10 11 10 10 9 8 9 9 9 9 10 12 12 12 12 12 12 10 9 7 6 5 3 2 2 3 4 5 6 7 8 9 10 11 12 12 11 10 10 11 11 12 12 13 13 13 14 16 17 18 18 20
1 4 2 3 1 2 3 2 3 5 7 5 4 3 2 2 1 1 2 2 1 1 1 2 0 1 2 2 2 6 7 6 6 7 9 11 11 11 10 9 9 9 9 10 10 11 12 12 12 12 11 10 8 7 6 4 3 2 1 3 4 5 6 7 8 9 10 11 12 11 10 10 11 11 11 12 12 12 13 14 16 17 17 18 19 21
1 2 1 2 2 2 3 4 2 4 6 5 3 1 1 2 2 0 1 2 2 2 1 0 1 2 2 1 2 6 7 8 8 6 7 11 13 12 12 11 11 10 11 11 12 13 14 13 13 12 10 9 8 7 5 4 3 1 1 3 4 5 7 7 8 9 10 11 11 11 10 10 10 10 11 11 12 13 14 16 16 17 17 19 20 22
1 2 2 0 3 3 2 3 1 1 2 3 4 3 2 2 1 1 1 1 2 2 0 1 1 2 3 2 2 1 2 6 9 8 8 13 15 13 13 13 13 13 13 13 14 14 13 12 11 10 9 9 8 7 6 4 3 0 2 4 5 6 7 8 9 9 10 11 11 10 10 10 10 10 10 11 13 14 16 16 17 17 18 20 22 23
2 3 3 2 3 3 0 1 0 0 1 0 2 1 0 1 1 2 2 2 1 2 1 3 2 3 3 2 4 4 4 3 7 10 12 14 16 15 14 14 14 14 14 13 13 12 11 11 10 10 10 9 8 7 6 4 1 2 3 5 6 7 8 8 9 9 10 11 10 10 9 9 9 10 11 13 14 15 16 17 17 18 20 21 23 24
1 3 4 3 1 1 2 2 1 0 1 1 1 1 1 1 2 3 1 2 2 2 0 2 2 3 3 0 1 2 3 4 5 8 12 15 16 16 15 14 14 13 12 12 11 11 11 11 11 11 10 9 9 8 5 2 1 3 4 6 7 8 8 8 9 10 10 10 9 9 8 8 9 11 12 14 15 16 17 18 19 20 21 22 23 23
3 2 3 2 0 0 1 1 0 1 1 0 1 1 1 0 2 2 2 2 0 0 1 2 1 3 3 2 2 1 2 3 4 8 13 15 15 15 15 14 14 12 12 12 11 12 12 11 12 11 11 10 9 7 4 1 2 4 5 6 7 7 7 8 9 9 10 9 8 7 8 9 10 12 14 15 16 17 18 19 20 21 21 22 22 22
3 1 2 3 2 1 2 2 2 1 0 1 0 1 0 1 1 0 0 2 1 1 2 3 1 4 3 2 3 4 4 6 7 9 13 14 14 14 15 14 13 12 12 12 12 12 12 12 12 12 12 11 9 6 3 1 3 5 6 7 7 7 7 8 8 9 8 7 7 7 8 10 11 13 14 15 17 18 19 20 20 20 20 20 21 21
3 2 1 3 4 3 1 2 2 2 1 0 1 1 1 0 2 1 1 3 0 1 2 3 3 3 3 2 3 5 5 6 9 11 11 12 14 14 14 14 14 13 13 12 12 12 12 13 13 13 12 11 8 5 2 2 4 6 7 7 7 6 7 7 8 7 6 5 6 7 9 11 12 13 15 16 17 18 18 19 20 20 21 21 21 22
3 4 3 2 4 4 2 1 1 1 0 1 1 1 1 1 2 3 3 1 2 2 1 4 3 3 6 4 4 6 6 6 9 12 12 11 12 13 13 14 14 13 12 12 12 13 13 14 14 14 13 11 9 5 3 4 6 7 7 7 7 6 7 7 6 5 4 5 6 8 10 11 13 14 15 16 17 17 19 20 21 22 22 21 21 22
4 3 3 3 4 2 1 1 2 2 1 1 0 1 3 3 2 3 3 3 2 4 3 5 1 2 6 4 6 7 7 6 10 14 15 15 14 14 13 13 14 13 12 13 13 14 15 15 15 14 13 12 9 7 6 6 7 7 7 7 6 6 6 5 4 3 4 6 7 9 10 11 12 14 14 15 16 18 19 22 23 24 23 22 22 23
4 2 2 1 2 0 0 1 2 1 1 1 2 3 4 4 6 6 6 6 4 4 6 4 0 4 7 4 3 5 7 9 13 14 14 15 16 16 15 15 14 14 14 15 15 15 15 16 15 14 14 12 10 9 8 8 8 8 7 7 6 6 5 4 2 3 4 6 8 9 10 11 12 13 14 15 16 18 20 22 25 26 26 24 23 23
3 2 1 2 2 1 2 2 1 1 2 3 4 5 5 5 8 8 6 6 4 5 7 4 5 9 9 7 8 9 8 9 11 12 13 15 17 18 18 18 16 15 16 16 16 16 16 15 15 14 13 12 11 10 10 9 8 8 7 6 6 5 4 2 1 3 5 7 8 8 9 10 12 14 15 15 16 17 19 22 25 27 27 26 24 24
2 2 1 1 2 2 3 2 1 2 2 3 5 6 6 6 6 7 6 4 3 6 8 5 7 11 8 7 12 15 13 10 9 10 13 16 18 19 20 19 18 17 17 16 16 17 16 15 15 15 13 12 12 11 10 9 8 7 7 6 5 4 2 0 2 4 6 6 7 7 8 10 12 13 13 14 15 16 19 22 24 27 28 27 25 24
2 2 1 2 2 3 3 2 2 3 3 4 8 9 9 7 6 6 6 5 5 5 4 2 5 9 6 6 7 9 10 11 11 12 14 16 18 20 21 20 19 18 17 17 17 17 17 17 16 14 12 12 12 11 10 9 8 7 7 6 5 4 2 1 3 5 5 6 6 6 8 9 10 11 12 13 15 17 19 22 24 26 28 28 27 26
3 4 2 2 1 3 4 3 3 4 4 4 8 9 11 11 8 5 5 8 10 8 5 5 8 7 5 7 7 5 7 10 13 13 14 18 20 21 22 20 18 18 18 17 18 17 17 17 16 13 12 11 11 10 9 8 8 7 6 6 5 3 2 2 3 4 4 4 5 5 7 8 9 10 12 13 16 18 20 21 23 25 28 29 28 27
2 3 1 1 1 2 5 4 3 3 3 5 5 3 6 10 12 11 9 10 12 9 6 7 7 4 6 8 8 8 10 10 9 8 9 14 20 22 23 22 19 18 18 18 17 17 16 15 15 14 13 11 11 10 9 8 8 7 7 6 4 3 3 2 2 3 3 3 4 5 6 8 9 11 14 15 17 18 20 21 23 25 28 30 29 27
2 2 1 1 1 1 2 3 4 3 6 5 2 2 0 3 9 12 12 10 11 12 11 11 10 8 11 12 12 11 12 10 8 7 7 12 18 20 21 22 20 18 19 19 18 16 15 15 15 15 14 12 11 11 9 9 8 7 7 6 4 4 3 2 1 1 2 3 4 5 6 8 11 13 15 16 17 18 19 21 22 25 28 30 29 27
3 2 1 0 1 1 1 2 2 6 5 1 1 2 1 2 4 5 8 11 12 14 13 14 16 16 15 16 15 14 12 10 9 11 10 11 16 19 20 21 21 19 19 18 17 16 14 14 14 13 13 12 11 11 10 9 8 8 7 6 5 4 3 2 2 2 2 2 3 4 6 9 12 14 16 17 17 18 19 20 22 25 28 30 29 27
2 2 1 1 0 0 1 2 4 5 6 3 1 2 3 3 5 6 2 8 10 15 17 16 15 17 18 18 17 14 10 7 9 14 16 14 14 18 19 19 18 17 17 16 14 13 12 12 13 12 12 12 12 11 10 8 8 8 7 6 5 5 4 4 5 3 1 1 2 4 7 9 12 14 16 17 17 18 19 20 22 25 28 29 28 26
2 2 3 1 0 1 2 2 3 4 4 4 4 4 5 4 5 4 0 5 6 10 19 19 14 14 15 15 15 13 7 3 6 13 18 16 15 18 19 19 18 17 17 16 15 14 14 13 14 13 13 13 12 11 10 9 9 8 7 6 6 5 6 7 6 5 2 1 2 5 8 10 13 15 16 17 17 18 19 20 22 25 28 29 28 26
3 1 2 2 0 2 3 1 2 3 5 5 4 5 6 6 6 2 3 4 5 4 8 16 16 16 13 14 17 13 7 3 6 11 13 11 12 18 21 22 21 19 18 17 16 14 13 13 13 13 14 14 12 10 10 10 9 8 7 6 6 7 8 8 8 6 3 3 4 6 9 11 13 15 16 17 17 17 18 19 21 24 27 28 27 26
3 2 0 1 2 3 3 2 3 4 5 5 5 7 7 7 5 3 4 5 5 6 3 9 15 16 14 17 20 14 8 9 7 7 7 6 9 17 22 23 22 20 18 18 17 14 12 12 13 13 13 12 11 10 11 10 9 7 7 7 7 9 9 9 8 7 5 5 6 7 10 12 14 15 16 17 17 17 17 18 21 24 26 26 26 26
2 1 1 2 3 4 4 3 4 5 4 2 5 9 11 6 2 2 2 5 5 6 6 5 10 11 11 19 23 17 16 16 7 1 4 5 8 17 23 23 21 18 16 17 17 14 12 12 13 12 11 11 11 11 11 10 8 7 7 8 9 9 9 9 9 7 7 7 8 9 11 13 15 16 17 17 17 17 17 18 21 24 25 25 25 25
2 1 2 2 2 4 4 2 3 6 5 4 9 10 9 5 1 4 5 1 4 5 6 4 4 6 10 19 24 21 19 17 11 5 4 4 8 16 23 25 23 19 17 17 16 14 13 13 13 12 11 10 11 11 11 10 9 8 8 8 9 9 10 10 9 8 9 9 9 10 13 14 15 16 17 17 17 17 17 18 21 24 24 24 25 25
5 4 2 3 4 3 2 1 1 5 4 12 15 7 4 5 3 2 2 2 5 7 7 5 2 3 7 15 21 20 17 14 14 12 7 7 10 15 20 24 23 19 18 17 15 14 14 13 13 11 10 10 11 11 11 10 9 8 8 8 9 10 11 10 9 10 10 10 11 12 14 15 16 16 16 17 17 17 17 18 21 23 23 23 25 25
4 5 4 4 4 4 3 4 5 4 9 21 18 5 7 12 7 1 2 1 5 8 9 8 6 3 5 10 16 19 17 14 14 14 10 10 13 15 17 20 20 18 17 15 14 13 13 13 12 11 10 11 11 12 12 11 9 9 8 8 9 10 10 10 10 11 11 11 12 13 14 15 15 16 16 17 17 16 16 17 20 22 22 23 25 25
6 5 3 3 5 5 5 8 7 2 9 23 23 12 9 12 13 10 9 10 10 10 11 11 9 7 4 7 13 18 18 15 14 13 11 11 13 15 16 17 16 16 15 14 14 13 13 12 11 11 11 11 12 13 12 11 10 9 8 9 10 10 10 10 11 11 11 11 12 13 14 14 15 15 16 16 16 16 15 17 19 21 22 23 25 25
5 3 2 1 3 4 8 14 13 9 10 19 23 19 15 14 16 17 17 17 15 13 12 12 11 9 5 6 11 15 18 17 14 13 12 12 13 14 15 15 15 15 15 14 14 13 13 12 12 13 13 13 13 14 13 12 11 9 9 10 10 10 10 11 11 11 11 12 12 13 14 14 14 15 16 16 16 16 15 16 18 20 21 23 25 26
4 6 4 1 2 2 6 9 9 10 14 17 19 22 23 21 22 22 22 22 20 16 13 12 11 10 8 8 9 12 16 17 16 15 14 13 13 14 14 14 14 15 14 13 13 13 13 13 14 14 14 13 14 14 13 13 11 10 11 11 10 10 10 11 11 11 11 12 13 14 14 14 15 15 16 16 15 15 16 17 18 20 21 23 25 26
4 7 5 3 4 4 5 11 11 11 14 17 19 22 23 23 23 24 23 23 24 22 19 16 13 11 10 9 9 10 13 17 18 18 16 15 14 13 13 13 13 13 13 12 13 14 14 14 14 14 14 13 13 13 13 13 12 12 12 11 10 10 11 11 11 11 12 13 14 14 13 14 15 15 16 15 15 15 16 16 18 20 21 23 25 27
8 7 5 4 4 4 9 16 19 16 17 22 25 25 24 23 22 21 22 22 23 24 23 21 17 14 12 11 10 11 12 15 18 19 18 16 15 13 12 12 12 12 13 13 14 14 15 14 14 14 13 12 12 13 14 14 14 14 13 11 10 11 11 11 12 12 13 14 14 13 13 14 15 16 15 15 15 15 16 17 18 20 22 23 25 27
8 4 3 3 2 5 7 9 10 7 9 16 18 15 14 14 13 14 18 20 21 21 21 21 21 19 16 14 13 13 12 13 15 17 18 17 16 14 12 11 11 12 13 14 14 15 15 14 14 14 12 12 12 14 15 16 16 15 14 12 12 12 12 12 13 13 14 14 14 14 14 14 15 16 15 15 14 15 16 17 18 20 22 24 26 26
15 10 8 8 6 10 13 12 9 9 12 15 15 13 12 12 12 13 15 16 16 17 17 18 21 22 21 18 16 15 14 13 14 16 18 18 17 15 12 12 13 13 13 14 14 15 15 15 15 14 13 13 14 15 16 17 16 15 14 13 13 13 13 14 14 15 15 14 14 14 14 15 16 15 15 15 14 15 15 16 17 19 21 24 25 25
Wind_Direction
195 162 141 151 176 218 212 261 302 156 141 119 107 104 105 104 96 109 119 147 237 100 90 92 107 133 153 166 174 169 170 167 159 169 181 188 205 206 204 211 209 206 210 213 217 228 239 249 255 264 275 246 212 204 210 216 227 243 250 253 254 259 265 273 282 292 301 306 317 325 326 328 324 321 325 327 323 324 329 328 327 329 330 331 333 336
209 148 96 52 304 285 287 282 292 153 127 111 111 113 100 99 98 100 116 139 272 37 99 102 101 118 145 166 173 169 182 191 177 174 187 197 207 216 211 212 212 206 214 223 223 236 253 255 258 269 267 236 213 209 215 222 235 247 253 257 261 268 274 280 286 294 302 306 317 322 319 320 319 319 323 325 322 320 322 322 325 330 331 333 335 338
176 94 53 360 316 286 280 278 289 117 118 111 115 116 109 115 106 89 101 137 302 63 128 126 107 110 142 160 168 181 201 204 188 180 186 200 209 222 221 211 210 214 219 224 230 244 256 258 261 263 251 226 213 213 218 228 241 249 256 263 269 277 284 288 290 294 301 308 319 320 317 319 319 321 326 326 322 320 319 319 326 332 333 335 338 339
109 61 335 312 314 309 280 282 123 114 108 118 130 125 129 144 134 112 128 143 57 72 139 144 120 109 145 147 172 194 203 208 202 196 197 209 213 223 228 217 214 216 216 220 228 238 253 265 259 249 234 214 209 214 220 233 245 251 259 265 272 281 288 291 296 302 307 314 319 317 316 316 317 323 328 325 321 321 321 322 328 333 334 336 339 340
83 20 317 301 308 308 126 72 83 108 99 101 123 131 145 154 135 123 140 142 81 59 137 151 123 130 162 165 191 193 200 209 208 204 208 220 221 221 227 227 226 220 216 215 211 220 243 255 247 231 214 205 207 216 224 238 248 255 262 268 275 283 287 293 302 311 315 318 317 314 315 316 320 324 324 318 316 318 318 319 324 328 332 335 338 340
63 354 331 326 332 331 104 71 26 33 117 77 60 137 150 145 123 126 144 147 113 94 185 175 111 207 180 183 186 165 192 213 205 206 215 224 227 222 216 221 229 222 215 211 203 215 237 245 239 211 201 202 208 219 230 245 255 262 266 272 279 282 288 297 309 317 319 317 314 313 315 317 318 320 316 310 308 309 311 316 321 325 330 334 337 340
3 348 340 316 4 27 87 77 12 359 116 89 34 138 139 130 126 140 153 147 126 132 159 143 124 193 212 205 179 156 186 209 200 208 218 223 227 224 215 216 223 218 213 210 200 205 227 238 227 200 195 202 212 224 241 256 264 269 271 275 280 283 291 302 314 318 317 314 313 313 314 315 316 316 315 310 310 313 315 319 324 327 331 335 339 341
339 351 359 2 38 58 73 68 340 333 104 106 307 130 128 131 138 151 152 128 117 104 72 188 175 91 269 227 157 153 178 202 203 210 215 216 219 223 221 220 219 215 215 216 212 212 218 227 221 202 197 203 213 230 250 262 266 271 273 275 279 286 294 305 313 314 313 312 312 313 313 316 317 316 316 313 314 318 319 323 328 333 336 337 339 340
350 356 358 2 39 63 55 273 292 328 87 115 280 126 129 138 146 153 138 113 137 117 83 252 250 63 278 303 122 147 173 214 217 212 208 207 209 214 217 216 215 212 212 218 223 222 219 224 221 209 205 207 217 236 253 265 268 271 272 272 278 287 296 304 308 309 311 311 311 312 313 315 315 315 316 314 317 322 327 331 334 339 339 333 334 337
28 3 347 2 50 61 310 268 275 336 79 212 187 116 122 136 147 164 134 113 130 112 127 221 304 90 252 300 157 162 211 226 216 206 203 204 203 206 209 209 210 208 209 216 222 216 214 221 221 214 212 215 227 241 254 267 270 271 270 273 280 288 296 301 303 306 309 310 310 310 312 314 315 316 315 315 320 327 331 333 332 336 334 326 328 334
130 54 46 47 47 320 280 284 271 250 138 161 131 112 120 127 136 174 88 91 94 62 305 287 357 94 205 272 194 187 257 220 191 180 191 196 199 203 205 205 205 202 204 208 208 205 209 220 221 219 221 227 236 247 259 268 270 270 270 275 283 288 295 299 302 307 309 309 310 312 315 318 317 317 317 316 322 326 327 328 329 330 328 324 328 332
53 40 45 22 13 342 280 330 347 317 115 126 133 124 118 106 85 47 23 30 103 155 270 308 351 88 185 261 209 192 326 5 156 164 165 173 183 193 197 199 199 198 201 203 202 206 212 218 218 220 227 234 241 251 262 269 270 271 272 277 281 287 294 300 305 308 310 311 314 317 319 320 319 319 319 319 323 324 324 326 327 328 327 327 328 330
33 31 13 332 13 22 4 78 37 357 343 34 142 120 104 110 101 74 33 51 109 246 268 332 336 278 224 252 168 155 111 43 73 98 114 137 154 169 178 185 187 186 189 192 197 205 211 213 214 219 228 236 246 256 264 268 270 270 271 274 279 288 295 302 307 309 313 317 319 321 321 320 321 321 321 324 327 326 325 327 327 328 330 329 329 331
53 47 8 350 1 10 5 102 83 353 293 197 147 124 113 138 133 142 184 155 99 283 303 336 333 266 242 312 103 122 106 88 94 102 113 125 134 149 165 176 181 181 179 181 191 204 212 215 217 222 232 243 255 265 269 269 268 264 264 270 279 289 298 305 310 313 317 320 321 322 323 324 324 325 327 328 328 328 327 328 328 330 331 331 331 335
82 90 10 357 323 344 2 74 128 241 255 183 128 110 114 150 140 145 171 143 126 155 341 339 340 171 200 260 95 109 101 100 108 117 128 136 150 172 185 194 197 199 200 203 207 214 220 223 226 231 240 252 260 263 265 264 257 250 255 269 282 293 305 311 312 315 317 319 322 325 329 330 329 329 330 329 329 329 329 328 329 330 330 332 336 342
82 75 331 296 276 310 353 1 279 320 310 340 14 63 96 203 151 125 148 135 130 124 63 279 264 182 134 66 76 107 111 116 122 126 131 136 153 169 183 197 203 212 219 221 222 223 225 227 231 237 243 248 249 249 251 245 236 239 252 271 289 303 310 311 312 316 319 322 328 333 336 335 331 330 330 330 330 329 329 329 329 330 333 339 344 346
116 76 311 299 271 311 3 340 352 51 202 314 19 40 241 194 121 113 73 34 102 125 162 207 241 51 76 17 35 124 126 135 138 141 145 145 147 150 159 172 178 191 201 208 215 218 223 227 229 231 231 232 231 228 226 218 215 227 246 282 301 308 309 310 313 316 322 329 336 339 339 336 332 331 330 329 329 330 330 330 331 336 341 345 346 343
108 105 342 351 37 336 345 336 357 36 81 112 91 187 185 46 85 105 92 26 39 139 207 225 194 173 174 279 243 175 179 177 171 165 155 155 160 157 160 167 171 178 179 185 196 200 206 210 209 209 207 208 208 203 200 196 194 210 254 297 305 307 307 310 315 321 330 336 340 341 338 335 333 330 330 329 329 330 330 332 338 344 347 346 343 342
73 91 22 348 356 301 336 6 2 21 45 84 139 165 116 76 30 9 104 129 171 163 248 303 302 209 203 193 208 211 205 184 178 174 158 164 170 161 160 168 172 177 177 180 181 177 180 181 181 185 185 185 186 181 181 181 180 204 272 305 308 311 313 315 320 328 336 337 338 339 336 333 331 329 329 330 330 331 334 341 346 348 346 344 342 342
269 90 62 308 321 315 6 32 7 347 13 47 86 58 45 113 137 167 120 141 154 144 159 348 14 318 265 239 213 202 194 178 173 174 167 173 174 167 169 171 167 168 170 171 171 166 166 167 168 173 173 174 173 171 173 172 174 196 310 322 319 319 317 319 324 328 333 333 336 337 333 330 328 329 331 331 333 338 344 348 349 347 346 343 342 342
6 68 113 63 355 359 21 31 8 301 346 13 26 19 5 17 78 108 67 83 127 134 137 88 84 268 271 319 353 84 157 171 165 168 177 174 171 169 172 171 165 167 170 169 167 164 163 166 170 171 170 170 169 168 170 169 166 123 348 334 324 321 318 317 321 325 328 333 336 333 328 327 329 332 334 336 341 347 349 350 348 347 346 343 342 340
39 72 96 97 36 32 59 242 267 21 276 22 48 77 182 314 13 64 12 322 83 106 152 120 115 260 261 335 5 25 31 77 136 163 175 165 159 162 169 174 174 175 175 171 167 165 169 174 173 171 170 171 172 172 172 168 142 6 348 334 323 318 316 314 316 322 329 333 334 329 326 329 332 336 341 346 350 351 351 350 349 348 345 342 340 338
29 81 75 72 58 75 170 184 114 357 262 253 256 231 225 328 69 89 123 272 4 39 226 129 120 259 265 267 34 37 45 54 94 141 155 147 150 162 170 177 183 183 178 174 173 176 181 181 176 176 177 176 176 176 173 157 36 356 340 329 319 312 310 311 315 324 331 331 328 325 328 334 340 345 351 354 354 353 353 352 350 347 343 340 339 339
11 78 79 83 194 268 170 172 342 270 250 329 262 262 354 101 138 132 162 169 56 269 189 79 80 265 260 185 156 161 173 169 127 122 137 145 157 173 182 185 186 184 182 182 185 187 188 185 182 183 183 181 182 180 172 122 3 346 333 321 312 307 306 311 320 327 328 325 322 326 336 344 351 356 358 358 358 356 354 351 348 345 343 342 343 344
22 111 100 100 105 20 357 317 303 272 205 70 108 107 8 196 137 357 19 89 70 223 127 102 209 252 248 178 182 192 182 183 171 147 148 162 175 186 191 193 190 189 191 192 192 192 190 186 187 189 188 188 189 187 183 331 339 331 325 316 310 307 309 316 324 325 320 318 325 337 349 357 1 4 3 1 359 357 355 353 351 350 349 349 349 348
59 77 75 123 148 160 196 237 232 232 233 219 101 133 248 268 94 86 52 68 255 238 109 144 207 251 280 272 223 205 180 173 177 169 166 178 190 195 195 193 193 196 198 195 193 193 191 190 194 195 194 196 198 199 220 301 320 319 316 314 311 311 318 322 320 315 314 323 340 354 2 7 10 9 5 3 2 2 2 2 360 358 356 353 351 350
98 72 33 76 125 149 169 201 225 279 239 175 168 199 197 85 72 97 93 126 194 163 215 226 214 276 284 253 215 209 188 171 176 180 183 187 192 197 198 197 199 201 201 197 196 196 196 198 201 202 202 205 208 214 246 288 302 311 315 314 315 320 321 317 308 308 324 343 358 9 14 16 15 11 8 8 9 9 9 7 4 1 358 355 353 352
108 73 357 41 71 92 104 21 301 316 25 134 336 225 185 168 132 125 158 216 154 107 256 260 225 270 267 237 201 199 195 188 185 188 197 202 199 197 199 201 203 203 202 202 204 204 204 205 207 208 210 213 218 230 254 278 292 305 315 315 320 321 310 300 298 318 347 4 16 21 21 19 16 14 14 14 14 14 13 11 9 5 1 358 356 355
99 92 274 133 84 32 67 13 295 320 18 335 295 245 211 182 175 183 210 223 180 165 226 250 324 248 252 259 222 194 188 197 199 203 210 209 203 201 202 205 206 205 206 208 209 211 211 212 213 214 218 221 227 239 255 272 287 302 315 317 315 305 289 282 305 347 11 21 25 25 22 22 22 22 23 21 20 18 15 14 12 8 4 0 357 356
102 114 250 141 114 299 313 304 275 60 9 292 260 240 231 212 203 210 232 235 219 235 252 280 303 273 254 242 255 262 246 215 204 206 207 203 203 204 206 209 211 210 211 212 213 215 215 217 220 221 223 229 235 244 255 266 282 300 311 310 295 276 264 268 343 20 29 27 26 25 25 27 29 28 27 24 20 16 14 12 11 9 6 1 358 356
98 108 258 102 74 313 308 302 310 66 43 276 270 258 240 230 227 233 246 245 239 262 271 287 291 281 265 229 245 257 245 220 209 204 200 202 205 206 206 210 214 214 214 214 214 217 217 218 224 226 227 232 237 244 252 261 278 297 301 290 267 247 236 184 44 36 31 25 22 25 29 31 30 27 22 18 15 12 10 8 8 8 7 3 358 356
89 108 263 60 55 293 289 322 343 18 25 287 274 257 226 212 216 219 216 201 193 215 233 243 265 270 256 195 212 231 215 211 224 222 214 212 210 209 211 212 214 215 214 212 215 217 217 219 224 226 226 229 235 241 248 258 277 290 283 261 239 222 190 90 53 37 26 21 23 29 33 31 24 18 13 10 8 7 4 3 4 7 6 3 359 356
94 127 155 99 106 277 297 326 336 356 4 295 264 234 203 198 200 203 213 208 199 188 175 205 233 239 199 166 174 199 206 217 229 230 227 222 216 217 220 218 219 218 213 211 215 217 217 220 224 226 225 227 233 240 247 257 273 276 258 235 221 198 143 90 55 33 21 23 35 40 33 22 10 4 2 358 357 359 358 358 1 4 4 1 358 356
118 135 130 101 116 279 294 320 358 348 286 256 261 209 182 194 195 199 220 218 200 190 201 232 239 205 172 178 184 194 201 212 229 239 236 225 219 219 221 221 221 218 211 211 215 217 219 220 221 224 225 228 233 238 244 255 263 256 235 219 204 175 135 95 56 32 33 48 54 41 21 7 358 352 349 347 347 350 352 354 357 1 1 359 357 355
151 113 68 66 83 261 294 6 21 276 235 223 279 5 98 186 186 201 234 238 208 207 227 246 248 221 200 202 205 205 205 215 243 262 249 228 222 220 219 218 216 213 210 211 214 215 217 216 218 222 225 229 234 237 242 250 249 235 220 208 189 168 149 120 105 79 84 79 53 28 7 356 350 344 341 341 342 344 348 351 355 358 358 356 355 355
137 127 107 72 25 344 356 71 187 251 254 178 47 326 349 56 131 183 261 261 221 206 215 232 241 233 219 215 214 211 213 227 255 267 254 231 224 224 220 215 213 211 210 210 212 213 214 216 221 225 228 231 234 234 238 241 233 220 210 198 183 175 177 194 205 188 127 81 37 11 355 346 343 340 339 339 339 343 346 349 352 355 355 354 354 354
93 123 110 56 55 139 314 243 238 290 316 334 310 241 182 159 162 159 259 269 228 204 204 218 240 237 226 224 220 210 215 242 275 268 252 237 229 226 220 215 213 211 209 209 210 212 214 218 222 224 227 230 229 230 232 228 218 211 203 194 190 190 203 220 217 202 178 55 9 349 343 340 338 338 338 337 339 343 346 349 350 351 352 352 352 353
22 125 134 128 204 98 57 322 310 322 299 277 271 229 193 193 197 169 354 296 272 220 207 212 234 238 222 215 207 195 197 245 280 262 249 238 228 222 215 210 209 207 207 205 204 207 212 217 221 224 225 224 224 224 222 216 209 204 200 197 199 209 221 228 224 216 222 292 324 331 335 333 332 334 336 336 338 342 346 348 348 348 349 349 350 352
15 21 104 101 152 118 108 198 251 256 249 246 240 216 193 190 194 142 21 299 307 314 217 214 230 238 221 198 185 170 157 199 252 259 251 238 225 217 210 205 203 204 205 203 203 210 218 221 222 222 219 218 219 217 212 208 203 200 204 204 209 223 230 230 228 228 241 275 302 321 327 325 326 331 333 334 337 341 344 345 345 346 347 348 349 351
40 351 59 142 204 183 159 214 242 254 257 242 210 196 187 184 178 83 19 268 277 345 320 226 233 242 227 196 180 166 175 210 239 263 243 229 221 213 208 205 203 203 203 202 206 215 222 223 220 217 216 215 215 211 205 203 202 203 208 213 221 231 233 231 233 239 252 272 295 313 317 318 322 327 329 331 334 337 339 341 344 345 345 346 348 349
43 321 152 159 209 200 188 229 266 267 258 220 166 170 168 156 123 115 204 241 274 329 327 269 246 249 224 194 186 190 209 214 214 215 198 208 212 205 204 205 204 204 205 207 213 220 222 220 215 214 216 215 210 207 203 202 206 208 212 221 229 232 231 233 239 245 257 274 292 305 309 313 319 323 325 328 330 332 335 339 343 344 344 345 346 347
167 191 146 149 199 193 186 208 283 285 263 170 141 152 157 143 158 214 210 270 347 342 340 320 255 240 220 208 205 210 215 212 211 214 210 217 210 200 199 201 202 204 208 209 214 221 219 215 213 214 217 215 209 206 205 206 210 213 220 229 231 229 231 237 244 251 261 275 290 298 304 310 315 318 322 324 326 329 333 338 342 343 342 343 345 346
170 158 177 201 187 163 147 153 260 288 239 150 134 127 173 185 184 175 156 36 10 0 358 352 308 236 223 222 218 214 212 212 214 217 216 209 201 195 198 202 204 209 212 211 214 218 215 215 217 220 221 217 209 207 209 211 214 219 228 230 225 227 235 240 246 254 265 277 288 295 300 306 311 315 318 321 324 328 332 337 341 342 341 342 343 344
188 171 177 208 188 144 145 191 211 247 194 168 162 177 219 209 210 143 109 52 11 6 356 346 337 303 235 226 219 211 210 211 209 208 204 195 190 188 193 200 204 209 212 213 215 215 213 216 220 223 224 218 212 212 214 214 218 226 230 227 225 230 236 241 248 257 268 278 286 292 296 302 308 312 314 318 322 326 330 335 341 342 341 341 342 343
217 194 159 200 210 180 193 219 227 239 178 183 194 221 228 220 234 245 255 275 297 311 315 320 327 321 270 229 219 213 211 210 206 204 200 193 188 187 189 196 201 205 208 209 210 211 214 218 223 228 229 222 216 216 215 216 222 230 229 226 229 234 237 243 252 261 271 279 284 289 293 299 306 310 311 315 320 324 327 332 339 342 341 340 341 342
228 202 102 127 251 268 266 251 243 245 226 210 217 235 245 246 252 255 262 273 280 286 293 294 296 302 289 238 224 219 215 212 207 202 197 190 187 188 191 195 199 202 205 207 208 211 215 219 224 229 229 225 220 217 215 218 225 230 228 229 232 237 240 247 256 264 272 278 283 286 290 298 304 307 309 313 318 320 322 327 335 339 340 340 341 341
226 192 178 218 268 279 274 259 238 233 241 240 240 247 251 254 258 260 263 267 270 275 280 277 277 282 276 254 239 228 219 215 211 207 202 198 196 195 196 198 201 203 207 210 212 215 219 223 227 230 230 227 223 218 217 222 225 226 228 231 235 239 245 252 260 267 272 276 279 283 289 298 302 304 307 311 315 318 318 322 329 335 337 338 339 340
193 173 182 215 211 206 255 272 272 268 265 262 259 258 259 262 264 265 267 268 268 268 267 265 265 264 261 258 248 236 226 219 215 215 214 210 208 204 203 205 207 208 211 214 215 218 222 226 228 229 230 228 224 221 222 224 225 226 230 235 238 242 250 258 262 267 271 273 277 282 289 297 301 302 305 309 312 315 314 316 322 328 331 334 337 338
143 157 183 192 209 257 282 274 272 279 282 273 266 263 266 271 273 272 271 270 268 267 264 259 255 253 254 254 245 237 232 225 220 221 221 220 217 214 212 213 214 215 218 219 219 222 226 229 230 230 231 229 224 223 224 224 225 228 232 238 242 245 254 261 263 267 270 271 277 283 288 294 299 300 304 308 311 312 311 312 317 323 327 331 334 335
144 174 184 151 203 265 259 244 240 252 270 270 270 270 270 274 275 271 269 268 268 269 266 259 251 245 244 244 241 235 233 230 225 224 224 224 224 224 224 222 219 221 223 223 224 226 227 231 233 232 231 230 228 226 226 225 225 229 234 240 245 249 256 262 264 267 270 272 278 284 287 292 296 299 303 307 310 310 310 311 315 321 325 328 330 331
193 203 184 175 213 246 247 240 226 230 255 274 285 285 278 275 272 268 270 274 274 273 270 263 252 244 239 239 238 234 232 231 228 226 225 226 227 229 232 229 225 225 227 228 230 232 232 233 234 232 230 233 233 229 226 225 225 230 236 242 247 252 257 262 265 268 271 275 279 282 286 290 294 298 301 305 309 310 309 310 314 319 323 325 327 329